sat.trackr.live / text

‹ back to catalog

STARLINK-3559

NORAD 51860 · 2022-022J

PAYLOAD ACTIVE UNKNOWN

§ Identity

Operator
Country
US
Launch date
2022-03-03
Launch site
AFETR
Launch vehicle
Mass (kg)
RCS (m²)

Purposes: comms

External: N2YO · Heavens-Above · Gunter

§ Orbital elements

Epoch: 2026-09-19T11:58:37.985664Z

Period
93.85 min
Inclination
53.1620°
Eccentricity
0.0001440
Mean motion
15.34387001 rev/d
Perigee alt
461.8 km
Apogee alt
463.7 km
Semi-major
6,840.9 km
B*
1.4097e-7
RAAN
208.0968°
Arg perigee
85.0690°
Mean anomaly
275.0477°
Rev number
25,252

§ Raw data

STARLINK-35591 51860U 22022J   26262.49905076 -.00000372  00000+0  14097-6 0  99952 51860  53.1620 208.0968 0001440  85.0690 275.0477 15.34387001252529

JSON: /api/v1/satellites/51860 · /tle

For live sub-satellite position, see the globe view (requires WebGL).

§ Visibility from observer

Set your observer location to see the next 7 days of passes ≥ 10°. The values pass through the URL so the page stays shareable.

No JS? Fill the form by hand. The geolocation button needs JavaScript.